Weather History for Fargo, ND

Change the Weather History Date:

Sunday, December 9, 2012

  Actual Average Record
Temperature  
Mean Temperature 8 °F 16 °F  
Max Temperature 21 °F 24 °F 56 °F (1990)
Min Temperature -6 °F 8 °F -26 °F (1977)
Degree Days  
Heating Degree Days 57 49  
Month to date heating degree days 346 424  
Since 1 July heating degree days 2255 2386  
Cooling Degree Days 0 0  
Month to date cooling degree days 0 0  
Year to date cooling degree days 795 551  
Moisture  
Dew Point 1 °F    
Average Humidity 72    
Maximum Humidity 84    
Minimum Humidity 59    
Precipitation  
Precipitation 0.02 in 0.02 in 0.24 in (1918)
Month to date precipitation 0.13 0.24  
Year to date precipitation 14.28 22.02  
Snow  
Snow 1.00 in 0.30 in 2.40 in (1936)
Month to date snowfall 1.7 3.1  
Since 1 July snowfall 10.1 11.7  
Snow Depth 2.00 in    
Sea Level Pressure  
Sea Level Pressure 30.20 in    
Wind  
Wind Speed 22 mph (North)    
Max Wind Speed 33 mph    
Max Gust Speed 40 mph    
Visibility 6 miles    
Events Snow    
T = Trace of Precipitation, MM = Missing Value Source: NWS Daily Summary

Daily Weather History Graph

Daily Weather History Graph

Search for Another Location

Airport:

Trip Planner

Search our weather history database for the weather conditions in past years. The results will help you decide how hot, cold, wet, or windy it might be!

Date:

Astronomy

Dec. 09, 2012 Rise Set
Actual Time 8:01 AM CST 4:38 PM CST
Civil Twilight 7:26 AM CST 5:13 PM CST
Nautical Twilight 6:47 AM CST 5:52 PM CST
Astronomical Twilight 6:10 AM CST 6:28 PM CST
Moon 3:23 AM CST (12/9) 1:56 PM CST (12/9)
Length of Visible Light 9h 47m
Length of Day
8h 37m
Waning Crescent, 18% of the Moon is Illuminated
Dec 9
Waning Crescent
Dec 13
New
Dec 19
First Quarter
Dec 28
Full
Jan 4
Last Quarter

Hourly Weather History & Observations

Time (CST) Temp. Windchill Dew Point Humidity Pressure Visibility Wind Dir Wind Speed Gust Speed Precip Events Conditions
12:53 AM 19.9 °F 3.5 °F 16.0 °F 85% 30.07 in 1.2 mi North 21.9 mph 27.6 mph 0.02 in Snow Light Snow
1:51 AM 19.4 °F 3.2 °F 14.0 °F 80% 30.03 in 1.2 mi North 20.7 mph 32.2 mph 0.00 in Snow Light Snow
1:53 AM 19.0 °F 2.0 °F 14.0 °F 81% 30.07 in 1.2 mi North 23.0 mph 32.2 mph 0.00 in Snow Light Snow
2:24 AM 17.6 °F 0.9 °F 12.2 °F 79% 30.04 in 1.5 mi North 20.7 mph 33.4 mph 0.01 in Snow Light Snow
2:39 AM 17.6 °F -0.6 °F 12.2 °F 79% 30.04 in 2.0 mi North 25.3 mph 32.2 mph 0.01 in Snow Light Snow
2:53 AM 18.0 °F -0.2 °F 12.9 °F 81% 30.09 in 2.0 mi North 25.3 mph 35.7 mph 0.01 in Snow Light Snow
3:01 AM 17.6 °F -0.6 °F 12.2 °F 79% 30.05 in 2.0 mi North 25.3 mph 32.2 mph 0.00 in Snow Light Snow
3:39 AM 17.6 °F 0.1 °F 12.2 °F 79% 30.05 in 1.8 mi North 23.0 mph 32.2 mph 0.00 in Snow Light Snow
3:53 AM 16.0 °F -3.2 °F 10.9 °F 81% 30.10 in 1.2 mi North 26.5 mph 34.5 mph 0.00 in Snow Light Snow
4:12 AM 15.8 °F -2.7 °F 10.4 °F 79% 30.06 in 1.2 mi North 24.2 mph 34.5 mph 0.00 in Snow Light Snow
4:39 AM 12.2 °F -7.5 °F 8.6 °F 85% 30.07 in 1.0 mi North 24.2 mph 34.5 mph 0.00 in Snow Light Snow
4:53 AM 12.0 °F -8.1 °F 7.0 °F 80% 30.14 in 1.2 mi North 25.3 mph 33.4 mph 0.00 in Snow Light Snow
5:44 AM 10.4 °F -10.3 °F 5.0 °F 79% 30.10 in 2.5 mi North 25.3 mph 32.2 mph 0.00 in Snow Light Snow
5:53 AM 10.4 °F -11.0 °F 5.0 °F 79% 30.11 in 2.5 mi North 27.6 mph 34.5 mph N/A Snow Light Snow
6:16 AM 10.4 °F -11.4 °F 3.2 °F 73% 30.12 in 1.8 mi North 28.8 mph 35.7 mph 0.00 in Snow Light Snow
6:53 AM 7.0 °F -16.0 °F 1.9 °F 80% 30.20 in 1.5 mi North 28.8 mph 38.0 mph 0.00 in Snow Light Snow
7:27 AM 6.8 °F -15.9 °F 1.4 °F 79% 30.17 in 2.5 mi North 27.6 mph 38.0 mph 0.00 in Snow Light Snow
7:46 AM 6.8 °F -16.6 °F 1.4 °F 79% 30.17 in 1.8 mi North 29.9 mph 36.8 mph 0.00 in Snow Light Snow
7:53 AM 7.0 °F -16.0 °F 1.0 °F 77% 30.23 in 2.0 mi North 28.8 mph 36.8 mph 0.00 in Snow Light Snow
8:04 AM 6.8 °F -15.9 °F -0.4 °F 72% 30.17 in 3.0 mi North 27.6 mph 35.7 mph 0.00 in Snow Light Snow
8:32 AM 6.8 °F -15.1 °F -0.4 °F 72% 30.19 in 2.5 mi North 25.3 mph 34.5 mph 0.00 in Snow Light Snow
8:39 AM 6.8 °F -15.1 °F -0.4 °F 72% 30.19 in 3.0 mi North 25.3 mph 33.4 mph 0.00 in   Overcast
8:53 AM 6.1 °F -16.1 °F -0.9 °F 73% 30.26 in 3.0 mi North 25.3 mph 34.5 mph 0.00 in   Overcast
9:53 AM 5.0 °F -19.4 °F -2.9 °F 70% 30.29 in 10.0 mi North 31.1 mph 38.0 mph 0.00 in   Overcast
10:53 AM 6.1 °F -16.8 °F -2.9 °F 67% 30.30 in 10.0 mi North 27.6 mph 38.0 mph 0.00 in   Overcast
11:53 AM 6.1 °F -15.7 °F -4.0 °F 63% 30.30 in 10.0 mi North 24.2 mph 34.5 mph N/A   Clear
12:53 PM 8.1 °F -13.4 °F -2.9 °F 61% 30.29 in 10.0 mi North 25.3 mph 33.4 mph N/A   Clear
1:53 PM 7.0 °F -15.3 °F -2.0 °F 67% 30.28 in 10.0 mi North 26.5 mph 36.8 mph N/A   Clear
2:50 PM 6.8 °F -14.3 °F -2.2 °F 67% 30.22 in 10.0 mi North 23.0 mph 33.4 mph N/A   Partly Cloudy
2:53 PM 5.0 °F -17.5 °F -2.0 °F 73% 30.29 in 10.0 mi NNW 25.3 mph 31.1 mph N/A   Partly Cloudy
3:53 PM 3.9 °F -17.1 °F -2.9 °F 73% 30.31 in 10.0 mi North 20.7 mph 28.8 mph N/A   Partly Cloudy
4:09 PM 3.2 °F -18.1 °F -4.0 °F 72% 30.24 in 10.0 mi North 20.7 mph 29.9 mph N/A   Mostly Cloudy
4:53 PM 1.9 °F -18.1 °F -4.0 °F 76% 30.32 in 10.0 mi North 17.3 mph - N/A   Clear
5:00 PM 1.4 °F -18.8 °F -5.8 °F 72% 30.25 in 10.0 mi North 17.3 mph - N/A   Partly Cloudy
5:53 PM 1.0 °F -19.9 °F -7.1 °F 69% 30.33 in 10.0 mi North 18.4 mph - N/A   Clear
6:53 PM -0.0 °F -21.3 °F -9.0 °F 66% 30.34 in 10.0 mi NNW 18.4 mph - N/A   Clear
7:53 PM -0.9 °F -21.2 °F -11.0 °F 62% 30.34 in 10.0 mi NNW 16.1 mph - N/A   Clear
8:53 PM -2.0 °F -19.6 °F -11.0 °F 66% 30.32 in 10.0 mi North 11.5 mph - N/A   Clear
9:53 PM -4.0 °F -17.8 °F -11.9 °F 69% 30.29 in 10.0 mi NNW 6.9 mph - N/A   Clear
10:53 PM -4.0 °F -20.2 °F -11.9 °F 69% 30.29 in 10.0 mi NNW 9.2 mph - N/A   Clear
11:53 PM -6.0 °F -18.6 °F -13.0 °F 72% 30.26 in 10.0 mi North 5.8 mph - N/A   Clear